Weather History for Kankakee, IL

Change the Weather History Date:

Sunday, March 24, 2013

  Actual Average Record
Temperature  
Mean Temperature 31 °F -  
Max Temperature 34 °F 52 °F 77 °F (2003)
Min Temperature 28 °F 30 °F 8 °F (1974)
Degree Days  
Heating Degree Days 34    
Moisture  
Dew Point 27 °F    
Average Humidity 83    
Maximum Humidity 97    
Minimum Humidity 65    
Precipitation  
Precipitation 0.00 in - - ()
Sea Level Pressure  
Sea Level Pressure 29.76 in    
Wind  
Wind Speed 13 mph (NE)    
Max Wind Speed 22 mph    
Max Gust Speed 30 mph    
Visibility 7 miles    
Events Rain , Snow    
Averages and records for this station are not official NWS values.
T = Trace of Precipitation, MM = Missing Value Source: NWS Daily Summary

Daily Weather History Graph

Daily Weather History Graph

Search for Another Location

Airport:

Trip Planner

Search our weather history database for the weather conditions in past years. The results will help you decide how hot, cold, wet, or windy it might be!

Date:

Astronomy

Mar. 24, 2013 Rise Set
Actual Time 6:47 AM CDT 7:08 PM CDT
Civil Twilight 6:20 AM CDT 7:35 PM CDT
Nautical Twilight 5:47 AM CDT 8:08 PM CDT
Astronomical Twilight 5:14 AM CDT 8:41 PM CDT
Moon 4:35 PM CDT (3/24) 4:59 AM CDT (3/24)
Length of Visible Light 13h 15m
Length of Day
12h 20m
Waxing Gibbous, 92% of the Moon is Illuminated
Mar 24
Waxing Gibbous
Mar 27
Full
Apr 2
Last Quarter
Apr 10
New
Apr 18
First Quarter

Hourly Weather History & Observations

Time (CDT) Temp. Windchill Dew Point Humidity Pressure Visibility Wind Dir Wind Speed Gust Speed Precip Events Conditions
12:15 AM 30.6 °F 22.4 °F 25.3 °F 81% 30.00 in 10.0 mi NE 9.2 mph - N/A   Clear
12:35 AM 30.2 °F 21.9 °F 25.2 °F 82% 29.99 in 10.0 mi NNE 9.2 mph - N/A   Clear
12:55 AM 30.4 °F 21.5 °F 24.8 °F 80% 29.99 in 10.0 mi NNE 10.4 mph - N/A   Clear
1:15 AM 30.2 °F 21.3 °F 23.9 °F 77% 29.98 in 10.0 mi NNE 10.4 mph 16.1 mph N/A   Clear
1:35 AM 30.2 °F 21.3 °F 23.7 °F 77% 29.97 in 10.0 mi NNE 10.4 mph - N/A   Scattered Clouds
1:55 AM 30.6 °F 21.2 °F 23.5 °F 75% 29.97 in 10.0 mi NNE 11.5 mph 17.3 mph N/A   Scattered Clouds
2:15 AM 30.6 °F 20.7 °F 23.7 °F 76% 29.97 in 10.0 mi NNE 12.7 mph - N/A   Scattered Clouds
2:35 AM 30.6 °F 22.4 °F 23.7 °F 76% 29.97 in 10.0 mi NE 9.2 mph 16.1 mph N/A   Mostly Cloudy
2:55 AM 30.6 °F 22.4 °F 23.5 °F 75% 29.97 in 10.0 mi NE 9.2 mph - N/A   Overcast
3:15 AM 30.2 °F 22.6 °F 23.0 °F 75% 29.96 in 10.0 mi NNE 8.1 mph - N/A   Overcast
3:35 AM 30.6 °F 23.8 °F 23.0 °F 74% 29.96 in 10.0 mi NE 6.9 mph - N/A   Overcast
3:55 AM 30.6 °F 23.1 °F 23.0 °F 74% 29.95 in 10.0 mi NE 8.1 mph - N/A   Overcast
4:15 AM 30.6 °F 21.8 °F 23.4 °F 75% 29.93 in 10.0 mi NE 10.4 mph - N/A   Overcast
4:35 AM 30.7 °F 23.3 °F 23.5 °F 75% 29.93 in 10.0 mi ENE 8.1 mph - N/A   Overcast
4:55 AM 29.3 °F 19.1 °F 25.7 °F 86% 29.92 in 1.0 mi ENE 12.7 mph - N/A Snow Snow
5:15 AM 28.8 °F 19.0 °F 26.4 °F 91% 29.90 in 2.0 mi NE 11.5 mph - N/A Snow Light Snow
5:35 AM 29.1 °F 20.6 °F 26.2 °F 89% 29.90 in 2.5 mi ENE 9.2 mph - N/A Snow Light Snow
5:55 AM 28.8 °F 20.9 °F 26.6 °F 92% 29.89 in 2.5 mi NE 8.1 mph - N/A Snow Light Snow
6:15 AM 28.8 °F 21.7 °F 26.2 °F 90% 29.88 in 10.0 mi NE 6.9 mph - N/A   Overcast
6:35 AM 29.3 °F 20.2 °F 25.3 °F 85% 29.86 in 10.0 mi NE 10.4 mph - N/A   Overcast
6:55 AM 29.7 °F 19.1 °F 24.8 °F 82% 29.85 in 10.0 mi NE 13.8 mph - N/A   Overcast
7:15 AM 29.7 °F 20.1 °F 24.8 °F 82% 29.86 in 10.0 mi NE 11.5 mph - N/A   Overcast
7:35 AM 29.8 °F 19.8 °F 24.8 °F 81% 29.85 in 10.0 mi ENE 12.7 mph - N/A   Overcast
7:55 AM 30.2 °F 20.2 °F 25.5 °F 83% 29.85 in 10.0 mi ENE 12.7 mph - N/A   Overcast
8:15 AM 30.6 °F 20.2 °F 25.9 °F 83% 29.84 in 10.0 mi ENE 13.8 mph - N/A   Overcast
8:35 AM 30.6 °F 19.4 °F 26.6 °F 85% 29.83 in 10.0 mi ENE 16.1 mph - N/A   Overcast
8:55 AM 30.2 °F 18.9 °F 27.1 °F 88% 29.82 in 5.0 mi ENE 16.1 mph 19.6 mph N/A   Overcast
9:15 AM 30.2 °F 18.9 °F 27.5 °F 90% 29.80 in 4.0 mi ENE 16.1 mph - N/A   Overcast
9:35 AM 30.6 °F 19.4 °F 27.7 °F 89% 29.78 in 4.0 mi ENE 16.1 mph 19.6 mph N/A   Overcast
9:55 AM 30.7 °F 20.0 °F 27.5 °F 88% 29.78 in 5.0 mi NE 15.0 mph 19.6 mph N/A   Overcast
10:15 AM 31.1 °F 19.3 °F 27.5 °F 87% 29.76 in 7.0 mi ENE 18.4 mph 21.9 mph N/A   Overcast
10:35 AM 31.1 °F 20.5 °F 27.5 °F 87% 29.77 in 7.0 mi ENE 15.0 mph - N/A   Overcast
10:55 AM 31.6 °F 21.6 °F 27.9 °F 86% 29.77 in 7.0 mi ENE 13.8 mph - N/A   Overcast
11:15 AM 31.6 °F 21.2 °F 27.9 °F 86% 29.75 in 5.0 mi NE 15.0 mph - N/A   Light Freezing Rain
11:35 AM 32.0 °F 20.8 °F 27.5 °F 83% 29.74 in 5.0 mi NE 17.3 mph - N/A   Drizzle
11:55 AM 32.0 °F 20.5 °F 27.3 °F 83% 29.73 in 7.0 mi NE 18.4 mph 24.2 mph N/A   Drizzle
12:15 PM 32.0 °F 20.5 °F 27.5 °F 83% 29.71 in 10.0 mi NE 18.4 mph - N/A   Light Drizzle
12:35 PM 32.2 °F 20.4 °F 27.5 °F 83% 29.69 in 10.0 mi ENE 19.6 mph - N/A   Light Drizzle
12:55 PM 32.5 °F 21.2 °F 27.1 °F 80% 29.68 in 10.0 mi NE 18.4 mph 26.5 mph N/A   Light Drizzle
1:15 PM 33.1 °F 22.6 °F 27.5 °F 80% 29.66 in 10.0 mi NE 16.1 mph 27.6 mph N/A   Overcast
1:35 PM 33.8 °F 22.2 °F 26.4 °F 74% 29.66 in 10.0 mi NE 20.7 mph 26.5 mph N/A   Overcast
1:55 PM 34.0 °F 22.7 °F 25.5 °F 71% 29.64 in 10.0 mi NE 19.6 mph 29.9 mph N/A   Overcast
2:15 PM 34.3 °F 22.9 °F 25.5 °F 70% 29.63 in 10.0 mi ENE 20.7 mph 26.5 mph N/A   Overcast
2:35 PM 34.5 °F 23.4 °F 24.6 °F 67% 29.62 in 10.0 mi NE 19.6 mph 25.3 mph N/A   Overcast
2:55 PM 34.7 °F 23.4 °F 24.4 °F 66% 29.60 in 10.0 mi NE 20.7 mph 27.6 mph N/A   Overcast
3:15 PM 34.7 °F 24.3 °F 23.9 °F 65% 29.61 in 10.0 mi NE 17.3 mph 27.6 mph N/A   Overcast
3:35 PM 34.9 °F 24.9 °F 24.1 °F 65% 29.61 in 10.0 mi NNE 16.1 mph 25.3 mph N/A   Overcast
3:55 PM 34.5 °F 26.7 °F 25.3 °F 69% 29.62 in 10.0 mi North 10.4 mph - N/A   Overcast
4:15 PM 34.7 °F 26.4 °F 25.0 °F 68% 29.63 in 10.0 mi NNE 11.5 mph 17.3 mph N/A   Overcast
4:35 PM 34.7 °F 25.9 °F 24.8 °F 67% 29.63 in 10.0 mi NNE 12.7 mph - N/A   Light Drizzle
4:55 PM 34.5 °F 26.2 °F 25.5 °F 70% 29.64 in 10.0 mi North 11.5 mph 17.3 mph N/A   Drizzle
5:15 PM 33.1 °F 23.4 °F 28.0 °F 82% 29.63 in 4.0 mi NNE 13.8 mph 18.4 mph N/A Rain Light Rain
5:35 PM 32.4 °F 22.1 °F 29.3 °F 88% 29.62 in 1.2 mi NNE 15.0 mph 23.0 mph N/A Snow Light Snow
5:55 PM 32.0 °F 21.6 °F 30.0 °F 92% 29.62 in 0.8 mi NNE 15.0 mph - N/A Snow Light Snow
6:15 PM 31.6 °F 20.0 °F 30.2 °F 94% 29.61 in 0.8 mi North 18.4 mph 25.3 mph N/A Snow Light Snow
6:35 PM 31.5 °F 21.4 °F 30.0 °F 94% 29.62 in 1.2 mi NNE 13.8 mph 24.2 mph N/A Snow Light Snow
6:55 PM 31.6 °F 20.7 °F 30.2 °F 94% 29.63 in 1.0 mi NNE 16.1 mph 23.0 mph N/A Snow Light Snow
7:15 PM 31.5 °F 20.9 °F 30.0 °F 94% 29.63 in 1.5 mi NNE 15.0 mph 23.0 mph N/A Snow Light Snow
7:35 PM 31.5 °F 21.4 °F 30.6 °F 96% 29.64 in 1.0 mi North 13.8 mph 19.6 mph N/A Snow Light Snow
7:55 PM 31.6 °F 22.1 °F 30.9 °F 97% 29.64 in 1.2 mi North 12.7 mph 21.9 mph N/A Snow Light Snow
8:15 PM 31.5 °F 20.5 °F 30.7 °F 97% 29.64 in 1.2 mi North 16.1 mph 24.2 mph N/A Snow Light Snow
8:35 PM 31.5 °F 20.1 °F 30.2 °F 95% 29.64 in 1.2 mi North 17.3 mph 24.2 mph N/A Snow Light Snow
8:55 PM 31.6 °F 22.1 °F 30.9 °F 97% 29.65 in 1.2 mi North 12.7 mph 17.3 mph N/A Snow Light Snow
9:15 PM 31.5 °F 20.9 °F 30.7 °F 97% 29.65 in 1.0 mi North 15.0 mph 20.7 mph N/A Snow Light Snow
9:35 PM 31.6 °F 21.6 °F 30.7 °F 96% 29.65 in 1.5 mi North 13.8 mph 25.3 mph N/A Snow Light Snow
9:55 PM 31.6 °F 20.4 °F 30.7 °F 96% 29.65 in 1.2 mi North 17.3 mph 23.0 mph N/A Snow Light Snow
10:15 PM 31.1 °F 20.1 °F 30.0 °F 96% 29.65 in 1.5 mi North 16.1 mph 25.3 mph N/A Snow Light Snow
10:35 PM 30.9 °F 18.1 °F 29.3 °F 94% 29.65 in 1.5 mi North 21.9 mph 27.6 mph N/A Snow Light Snow
10:55 PM 30.2 °F 19.8 °F 28.8 °F 94% 29.65 in 2.0 mi North 13.8 mph 25.3 mph N/A Snow Light Snow
11:15 PM 30.2 °F 20.2 °F 28.9 °F 95% 29.66 in 2.0 mi North 12.7 mph 21.9 mph N/A Snow Light Snow
11:35 PM 30.2 °F 17.8 °F 27.9 °F 91% 29.66 in 4.0 mi North 19.6 mph 29.9 mph N/A Snow Light Snow
11:55 PM 30.0 °F 18.3 °F 26.1 °F 85% 29.66 in 7.0 mi NNE 17.3 mph 27.6 mph N/A   Overcast